[keps] orb07168.amsat

Ray Hoad r.hoad at att.net
Sun Jun 17 20:13:22 PDT 2007


SB KEPS @ AMSAT  $ORB07168.O
Orbital Elements  07168.OSCAR

HR AMSAT ORBITAL ELEMENTS FOR OSCAR SATELLITES
FROM WA5QGD FORT WORTH,TX June 17, 2007
Send SUBSCRIBE KEPS/UNSUBSCRIBE KEPS to majordomo at amsat.org only
BID: ORB07168.O
TO ALL RADIO AMATEURS BT

Satellite: AO-07
Catalog number: 07530
Epoch time:      07168.54051129
Element set:     903
Inclination:      101.5132 deg
RA of node:       206.5383 deg
Eccentricity:    0.0011713
Arg of perigee:   255.7073 deg
Mean anomaly:     104.2703 deg
Mean motion:   12.53572486 rev/day
Decay rate:       -2.8e-07 rev/day^2
Epoch rev:           49116
Checksum:              268

Satellite: AO-10
Catalog number: 14129
Epoch time:      07165.62815902
Element set:     387
Inclination:      026.4610 deg
RA of node:       271.9596 deg
Eccentricity:    0.6063632
Arg of perigee:   030.5340 deg
Mean anomaly:     353.6982 deg
Mean motion:   02.05870064 rev/day
Decay rate:      -2.32e-06 rev/day^2
Epoch rev:           18051
Checksum:              288

Satellite: UO-11
Catalog number: 14781
Epoch time:      07168.05538376
Element set:     398
Inclination:      098.1882 deg
RA of node:       190.7540 deg
Eccentricity:    0.0009152
Arg of perigee:   165.2317 deg
Mean anomaly:     194.9149 deg
Mean motion:   14.79560797 rev/day
Decay rate:       2.49e-06 rev/day^2
Epoch rev:           24971
Checksum:              346

Satellite: RS-15
Catalog number: 23439
Epoch time:      07167.53931679
Element set:      38
Inclination:      064.8206 deg
RA of node:       007.9667 deg
Eccentricity:    0.0159562
Arg of perigee:   190.8476 deg
Mean anomaly:     168.8990 deg
Mean motion:   11.27551728 rev/day
Decay rate:       -3.9e-07 rev/day^2
Epoch rev:           51362
Checksum:              347

Satellite: FO-29
Catalog number: 24278
Epoch time:      07168.50038226
Element set:     527
Inclination:      098.5525 deg
RA of node:       128.1059 deg
Eccentricity:    0.0351520
Arg of perigee:   082.4879 deg
Mean anomaly:     281.6042 deg
Mean motion:   13.52930861 rev/day
Decay rate:       -2.7e-07 rev/day^2
Epoch rev:           53494
Checksum:              317

Satellite: SO-33
Catalog number: 25509
Epoch time:      07168.54509737
Element set:     953
Inclination:      031.4287 deg
RA of node:       223.7174 deg
Eccentricity:    0.0354218
Arg of perigee:   070.5856 deg
Mean anomaly:     293.2716 deg
Mean motion:   14.28169484 rev/day
Decay rate:       -4.2e-07 rev/day^2
Epoch rev:           45130
Checksum:              319

Satellite: AO-40
Catalog number: 26609
Epoch time:      07168.33758704
Element set:     890
Inclination:      005.6315 deg
RA of node:       139.4761 deg
Eccentricity:    0.7984008
Arg of perigee:   329.7388 deg
Mean anomaly:     001.8370 deg
Mean motion:   01.25587731 rev/day
Decay rate:      -2.48e-06 rev/day^2
Epoch rev:            3044
Checksum:              324

Satellite: VO-52
Catalog number: 28650
Epoch time:      07168.37927133
Element set:     653
Inclination:      097.8321 deg
RA of node:       239.0928 deg
Eccentricity:    0.0026069
Arg of perigee:   252.3435 deg
Mean anomaly:     107.4911 deg
Mean motion:   14.81328082 rev/day
Decay rate:       4.89e-06 rev/day^2
Epoch rev:           11444
Checksum:              314

Satellite: PO-63
Catalog number: 29712
Epoch time:      07168.71827253
Element set:     462
Inclination:      097.9212 deg
RA of node:       227.8703 deg
Eccentricity:    0.0015458
Arg of perigee:   124.0645 deg
Mean anomaly:     236.2031 deg
Mean motion:   14.79729030 rev/day
Decay rate:       6.67e-06 rev/day^2
Epoch rev:            2341
Checksum:              301

/EX
SB KEPS @ AMSAT  $ORB07168.D
Orbital Elements  07168.MICROS

HR AMSAT ORBITAL ELEMENTS FOR THE MICROSATS
FROM WA5QGD FORT WORTH,TX June 17, 2007
Send SUBSCRIBE KEPS/UNSUBSCRIBE KEPS to majordomo at amsat.org only
BID: ORB07168.D
TO ALL RADIO AMATEURS BT

Satellite: AO-16
Catalog number: 20439
Epoch time:      07168.57980201
Element set:      60
Inclination:      098.1947 deg
RA of node:       163.1137 deg
Eccentricity:    0.0010427
Arg of perigee:   180.9887 deg
Mean anomaly:     179.1285 deg
Mean motion:   14.31762790 rev/day
Decay rate:        8.0e-08 rev/day^2
Epoch rev:           90860
Checksum:              316

Satellite: LO-19
Catalog number: 20442
Epoch time:      07167.57010388
Element set:     986
Inclination:      098.1784 deg
RA of node:       171.5118 deg
Eccentricity:    0.0011650
Arg of perigee:   182.9961 deg
Mean anomaly:     177.1134 deg
Mean motion:   14.32002970 rev/day
Decay rate:       -7.2e-07 rev/day^2
Epoch rev:           90860
Checksum:              304

Satellite: AO-27
Catalog number: 22825
Epoch time:      07168.33808757
Element set:     709
Inclination:      098.3294 deg
RA of node:       138.2119 deg
Eccentricity:    0.0007421
Arg of perigee:   262.9174 deg
Mean anomaly:     097.1172 deg
Mean motion:   14.29210988 rev/day
Decay rate:        1.2e-07 rev/day^2
Epoch rev:           71551
Checksum:              316

Satellite: IO-26
Catalog number: 22826
Epoch time:      07167.96540306
Element set:     406
Inclination:      098.3230 deg
RA of node:       138.9266 deg
Eccentricity:    0.0007967
Arg of perigee:   261.8996 deg
Mean anomaly:     098.1281 deg
Mean motion:   14.29457129 rev/day
Decay rate:       -9.0e-08 rev/day^2
Epoch rev:           71554
Checksum:              339

Satellite: PO-28
Catalog number: 22829
Epoch time:      07167.99148084
Element set:     684
Inclination:      098.3113 deg
RA of node:       140.1185 deg
Eccentricity:    0.0008840
Arg of perigee:   230.9691 deg
Mean anomaly:     129.0695 deg
Mean motion:   14.30157293 rev/day
Decay rate:       -4.7e-07 rev/day^2
Epoch rev:           71578
Checksum:              328

Satellite: GO-32
Catalog number: 25397
Epoch time:      07168.23045346
Element set:     327
Inclination:      098.4129 deg
RA of node:       215.4421 deg
Eccentricity:    0.0000785
Arg of perigee:   178.4052 deg
Mean anomaly:     181.7118 deg
Mean motion:   14.23127311 rev/day
Decay rate:        7.2e-07 rev/day^2
Epoch rev:           46416
Checksum:              284

Satellite: MO-46
Catalog number: 26548
Epoch time:      07167.50973744
Element set:     821
Inclination:      064.5545 deg
RA of node:       184.7604 deg
Eccentricity:    0.0015649
Arg of perigee:   196.9409 deg
Mean anomaly:     163.1172 deg
Mean motion:   14.83150718 rev/day
Decay rate:        8.6e-07 rev/day^2
Epoch rev:           36343
Checksum:              331

Satellite: NO-44
Catalog number: 26931
Epoch time:      07167.45867640
Element set:     611
Inclination:      067.0496 deg
RA of node:       149.3649 deg
Eccentricity:    0.0007611
Arg of perigee:   265.6725 deg
Mean anomaly:     094.3507 deg
Mean motion:   14.29488355 rev/day
Decay rate:       2.00e-06 rev/day^2
Epoch rev:           29799
Checksum:              339

Satellite: SO-50
Catalog number: 27607
Epoch time:      07167.78342155
Element set:     336
Inclination:      064.5587 deg
RA of node:       086.2601 deg
Eccentricity:    0.0054026
Arg of perigee:   000.0541 deg
Mean anomaly:     000.0567 deg
Mean motion:   14.71266719 rev/day
Decay rate:        8.4e-07 rev/day^2
Epoch rev:           24106
Checksum:              278

Satellite: CO-55
Catalog number: 27844
Epoch time:      07167.75220052
Element set:      52
Inclination:      098.7174 deg
RA of node:       176.0589 deg
Eccentricity:    0.0010989
Arg of perigee:   091.8321 deg
Mean anomaly:     268.4107 deg
Mean motion:   14.20516805 rev/day
Decay rate:        4.9e-07 rev/day^2
Epoch rev:           20541
Checksum:              305

Satellite: CO-57
Catalog number: 27848
Epoch time:      07168.54761767
Element set:      12
Inclination:      098.7173 deg
RA of node:       176.0393 deg
Eccentricity:    0.0010790
Arg of perigee:   092.1018 deg
Mean anomaly:     268.1395 deg
Mean motion:   14.20335578 rev/day
Decay rate:        6.2e-07 rev/day^2
Epoch rev:           20550
Checksum:              314

Satellite: AO-51
Catalog number: 28375
Epoch time:      07168.15145350
Element set:     840
Inclination:      098.1118 deg
RA of node:       207.4717 deg
Eccentricity:    0.0083280
Arg of perigee:   182.1106 deg
Mean anomaly:     177.9741 deg
Mean motion:   14.40571254 rev/day
Decay rate:        3.0e-07 rev/day^2
Epoch rev:           15570
Checksum:              286

Satellite: CO-56
Catalog number: 28941
Epoch time:      07168.90813156
Element set:     473
Inclination:      098.1273 deg
RA of node:       230.0817 deg
Eccentricity:    0.0223906
Arg of perigee:   270.4349 deg
Mean anomaly:     087.1255 deg
Mean motion:   15.39970164 rev/day
Decay rate:      6.551e-05 rev/day^2
Epoch rev:            7354
Checksum:              324

Satellite: HO-59
Catalog number: 29484
Epoch time:      07168.68720707
Element set:     420
Inclination:      098.2831 deg
RA of node:       218.5390 deg
Eccentricity:    0.0205430
Arg of perigee:   263.9720 deg
Mean anomaly:     093.8068 deg
Mean motion:   15.51343576 rev/day
Decay rate:     1.5457e-04 rev/day^2
Epoch rev:            4115
Checksum:              323

Satellite: NO-60
Catalog number: 29661
Epoch time:      07150.05824307
Element set:     300
Inclination:      051.6186 deg
RA of node:       176.5045 deg
Eccentricity:    0.0007204
Arg of perigee:   190.7749 deg
Mean anomaly:     188.7342 deg
Mean motion:   16.52052832 rev/day
Decay rate:  1.3324117e-01 rev/day^2
Epoch rev:            2554
Checksum:              290

Satellite: NO-61
Catalog number: 29664
Epoch time:      07168.61487670
Element set:     221
Inclination:      051.6320 deg
RA of node:       090.1690 deg
Eccentricity:    0.0012007
Arg of perigee:   353.9459 deg
Mean anomaly:     006.1332 deg
Mean motion:   15.91714774 rev/day
Decay rate:     2.7787e-04 rev/day^2
Epoch rev:            2822
Checksum:              304

